When you browse on this site, cookies collect data to enhance your experience and personalize the content and advertising you see.
Visit our Privacy Policy to learn more. By continuing to use the site, you agree to this use of cookies and data.
  • en Suisse
  • Liste des pays
  • À 7 jours
  • Température de l'eau
  • Carte satellitaire
  • Carte météo
  • Widgets météo
  • user-avatar
    Se connecter

    Météo par heure à Tromsø

    Ce jour, 20 Février, Mercredi

    Heure Température Précipitation Vent Pression Humidité
    00:00 -14°C° 0 mm 2 m/s 740 mmHg 87%
    01:00 -13°C° 0 mm 2 m/s 741 mmHg 86%
    02:00 -12°C° 0.1 mm 2 m/s 742 mmHg 87%
    03:00 -12°C° 0.1 mm 2 m/s 743 mmHg 88%
    04:00 -12°C° 0.1 mm 3 m/s 744 mmHg 89%
    05:00 -12°C° 0.1 mm 3 m/s 744 mmHg 88%
    06:00 -12°C° 0.1 mm 3 m/s 745 mmHg 88%
    07:00 -10°C° 0.1 mm 2 m/s 746 mmHg 87%
    08:00 -10°C° 0.1 mm 2 m/s 746 mmHg 86%
    09:00 -10°C° 0.1 mm 2 m/s 747 mmHg 84%
    10:00 -10°C° 0.1 mm 2 m/s 747 mmHg 83%
    11:00 -9°C° 0 mm 1 m/s 748 mmHg 81%
    12:00 -9°C° 0 mm 1 m/s 749 mmHg 79%
    13:00 -9°C° 0 mm 1 m/s 749 mmHg 78%
    14:00 -10°C° 0 mm 1 m/s 750 mmHg 79%
    15:00 -10°C° 0 mm 1 m/s 750 mmHg 80%
    16:00 -13°C° 0 mm 2 m/s 751 mmHg 82%
    17:00 -13°C° 0 mm 2 m/s 751 mmHg 83%
    18:00 -14°C° 0 mm 3 m/s 751 mmHg 84%
    19:00 -14°C° 0 mm 3 m/s 752 mmHg 85%
    20:00 -15°C° 0 mm 3 m/s 752 mmHg 84%
    21:00 -16°C° 0 mm 3 m/s 752 mmHg 83%
    22:00 -16°C° 0 mm 3 m/s 752 mmHg 82%
    23:00 -17°C° 0 mm 3 m/s 752 mmHg 80%

    Demain, 21 Février, Jeudi

    Heure Température Précipitation Vent Pression Humidité
    00:00 -17°C° 0 mm 3 m/s 752 mmHg 77%
    01:00 -17°C° 0 mm 3 m/s 752 mmHg 75%
    02:00 -17°C° 0 mm 3 m/s 752 mmHg 72%
    03:00 -17°C° 0 mm 3 m/s 752 mmHg 69%
    04:00 -17°C° 0 mm 3 m/s 752 mmHg 65%
    05:00 -16°C° 0 mm 3 m/s 752 mmHg 63%
    06:00 -16°C° 0 mm 3 m/s 752 mmHg 62%
    07:00 -15°C° 0 mm 3 m/s 752 mmHg 60%
    08:00 -14°C° 0 mm 3 m/s 753 mmHg 61%
    09:00 -13°C° 0 mm 3 m/s 753 mmHg 63%
    10:00 -12°C° 0 mm 3 m/s 753 mmHg 65%
    11:00 -10°C° 0 mm 3 m/s 753 mmHg 67%
    12:00 -9°C° 0 mm 3 m/s 754 mmHg 70%
    13:00 -8°C° 0 mm 3 m/s 754 mmHg 73%
    14:00 -7°C° 0 mm 3 m/s 754 mmHg 74%
    15:00 -7°C° 0 mm 3 m/s 755 mmHg 75%
    16:00 -7°C° 0 mm 3 m/s 755 mmHg 76%
    17:00 -7°C° 0 mm 3 m/s 756 mmHg 74%
    18:00 -8°C° 0 mm 3 m/s 756 mmHg 72%
    19:00 -8°C° 0 mm 3 m/s 756 mmHg 70%
    20:00 -8°C° 0 mm 3 m/s 757 mmHg 68%
    21:00 -9°C° 0 mm 3 m/s 757 mmHg 67%
    22:00 -9°C° 0 mm 3 m/s 757 mmHg 65%
    23:00 -9°C° 0 mm 3 m/s 757 mmHg 64%

    Après-demain, 22 Février, Vendredi

    Heure Température Précipitation Vent Pression Humidité
    00:00 -9°C° 0 mm 3 m/s 757 mmHg 62%
    01:00 -9°C° 0 mm 3 m/s 758 mmHg 61%
    02:00 -9°C° 0 mm 3 m/s 758 mmHg 60%
    03:00 -9°C° 0 mm 3 m/s 757 mmHg 59%
    04:00 -9°C° 0 mm 3 m/s 757 mmHg 59%
    05:00 -9°C° 0 mm 3 m/s 757 mmHg 58%
    06:00 -9°C° 0 mm 3 m/s 757 mmHg 58%
    07:00 -9°C° 0 mm 3 m/s 756 mmHg 58%
    08:00 -8°C° 0 mm 3 m/s 756 mmHg 58%
    09:00 -8°C° 0 mm 4 m/s 756 mmHg 59%
    10:00 -7°C° 0 mm 4 m/s 755 mmHg 60%
    11:00 -5°C° 0 mm 4 m/s 755 mmHg 60%
    12:00 -4°C° 0 mm 5 m/s 754 mmHg 61%
    13:00 -2°C° 0 mm 5 m/s 753 mmHg 62%
    14:00 -1°C° 0.6 mm 5 m/s 752 mmHg 71%
    15:00 0°C° 0.6 mm 5 m/s 751 mmHg 80%
    16:00 +1°C° 0.6 mm 5 m/s 751 mmHg 90%
    17:00 +1°C° 0.2 mm 5 m/s 750 mmHg 93%
    18:00 +1°C° 0.2 mm 5 m/s 749 mmHg 96%
    19:00 +2°C° 0.2 mm 5 m/s 749 mmHg 99%
    20:00 +2°C° 0.1 mm 6 m/s 748 mmHg 99%
    21:00 +2°C° 0.1 mm 6 m/s 747 mmHg 99%
    22:00 +2°C° 0.1 mm 7 m/s 746 mmHg 99%
    23:00 +2°C° 1.4 mm 7 m/s 745 mmHg 99%

    23 Février, Samedi

    Heure Température Précipitation Vent Pression Humidité
    00:00 +2°C° 1.4 mm 7 m/s 744 mmHg 99%
    01:00 +2°C° 1.4 mm 7 m/s 744 mmHg 99%
    02:00 +2°C° 1.8 mm 7 m/s 744 mmHg 99%
    03:00 +1°C° 1.8 mm 8 m/s 744 mmHg 99%
    04:00 +2°C° 1.8 mm 9 m/s 744 mmHg 99%
    05:00 +1°C° 0.2 mm 8 m/s 746 mmHg 98%
    06:00 +2°C° 0.2 mm 7 m/s 747 mmHg 97%
    07:00 +1°C° 0.2 mm 6 m/s 749 mmHg 96%
    08:00 0°C° 0.1 mm 7 m/s 750 mmHg 97%
    09:00 0°C° 0.1 mm 7 m/s 751 mmHg 97%
    10:00 0°C° 0.1 mm 8 m/s 752 mmHg 98%
    11:00 0°C° 0 mm 7 m/s 753 mmHg 96%
    12:00 +1°C° 0 mm 6 m/s 754 mmHg 95%
    13:00 +1°C° 0 mm 5 m/s 754 mmHg 94%
    14:00 0°C° 0 mm 4 m/s 754 mmHg 93%
    15:00 0°C° 0 mm 4 m/s 754 mmHg 92%
    16:00 0°C° 0 mm 3 m/s 754 mmHg 91%
    17:00 0°C° 0.1 mm 4 m/s 754 mmHg 92%
    18:00 0°C° 0.1 mm 4 m/s 754 mmHg 93%
    19:00 +1°C° 0.1 mm 4 m/s 754 mmHg 94%
    20:00 +1°C° 0.2 mm 4 m/s 753 mmHg 95%
    21:00 +1°C° 0.2 mm 4 m/s 752 mmHg 97%
    22:00 +1°C° 0.2 mm 4 m/s 752 mmHg 99%
    23:00 +3°C° 0.5 mm 4 m/s 751 mmHg 98%

    24 Février, Dimanche

    Heure Température Précipitation Vent Pression Humidité
    00:00 +3°C° 0.5 mm 4 m/s 751 mmHg 97%
    01:00 +3°C° 0.5 mm 4 m/s 750 mmHg 97%
    02:00 +2°C° 0 mm 5 m/s 749 mmHg 97%
    03:00 +2°C° 0 mm 5 m/s 749 mmHg 97%
    04:00 +2°C° 0 mm 5 m/s 748 mmHg 97%
    05:00 +2°C° 0.4 mm 6 m/s 747 mmHg 97%
    06:00 +2°C° 0.4 mm 6 m/s 746 mmHg 98%
    07:00 +2°C° 0.4 mm 6 m/s 746 mmHg 98%
    08:00 +2°C° 0.7 mm 7 m/s 745 mmHg 98%
    09:00 +2°C° 0.7 mm 7 m/s 744 mmHg 99%
    10:00 +1°C° 0.7 mm 8 m/s 743 mmHg 99%
    11:00 +1°C° 0.7 mm 10 m/s 744 mmHg 94%
    12:00 -1°C° 0.7 mm 12 m/s 744 mmHg 90%
    13:00 -1°C° 0.7 mm 14 m/s 744 mmHg 85%
    14:00 -2°C° 0.4 mm 14 m/s 745 mmHg 83%
    15:00 -2°C° 0.4 mm 14 m/s 745 mmHg 81%
    16:00 -4°C° 0.4 mm 14 m/s 746 mmHg 78%
    17:00 -4°C° 0.4 mm 15 m/s 745 mmHg 76%
    18:00 -4°C° 0.4 mm 15 m/s 744 mmHg 74%
    19:00 -4°C° 0.4 mm 16 m/s 744 mmHg 71%
    20:00 -4°C° 1 mm 17 m/s 743 mmHg 76%
    21:00 -4°C° 1 mm 17 m/s 742 mmHg 81%
    22:00 -4°C° 1 mm 18 m/s 741 mmHg 86%
    23:00 -4°C° 1.1 mm 18 m/s 741 mmHg 86%

    25 Février, Lundi

    Heure Température Précipitation Vent Pression Humidité
    00:00 -3°C° 1.1 mm 18 m/s 741 mmHg 85%
    01:00 -3°C° 1.1 mm 18 m/s 741 mmHg 84%
    02:00 -3°C° 0.5 mm 15 m/s 742 mmHg 84%
    03:00 -2°C° 0.5 mm 13 m/s 744 mmHg 84%
    04:00 -2°C° 0.5 mm 10 m/s 746 mmHg 84%
    05:00 -1°C° 0.4 mm 9 m/s 748 mmHg 85%
    06:00 -1°C° 0.4 mm 7 m/s 749 mmHg 87%
    07:00 -1°C° 0.4 mm 6 m/s 751 mmHg 88%
    08:00 -1°C° 0.4 mm 6 m/s 752 mmHg 89%
    09:00 0°C° 0.4 mm 5 m/s 754 mmHg 90%
    10:00 0°C° 0.4 mm 4 m/s 755 mmHg 91%
    11:00 -1°C° 0.3 mm 6 m/s 755 mmHg 90%
    12:00 -1°C° 0.3 mm 9 m/s 755 mmHg 89%
    13:00 -2°C° 0.3 mm 11 m/s 756 mmHg 88%
    14:00 -2°C° 0.2 mm 11 m/s 755 mmHg 88%
    15:00 -3°C° 0.2 mm 10 m/s 755 mmHg 88%
    16:00 -3°C° 0.2 mm 10 m/s 754 mmHg 88%
    17:00 -2°C° 0.8 mm 8 m/s 753 mmHg 90%
    18:00 -2°C° 0.8 mm 6 m/s 752 mmHg 91%
    19:00 -1°C° 0.8 mm 5 m/s 752 mmHg 93%
    20:00 -1°C° 0.6 mm 4 m/s 750 mmHg 94%
    21:00 -2°C° 0.6 mm 4 m/s 749 mmHg 94%
    22:00 -2°C° 0.6 mm 4 m/s 747 mmHg 95%
    23:00 -1°C° 2.2 mm 5 m/s 747 mmHg 96%
    Voir plus